EST,Max TemperatureF,Mean TemperatureF,Min TemperatureF,Max Dew PointF,MeanDew PointF,Min DewpointF,Max Humidity, Mean Humidity, Min Humidity, Max Sea Level PressureIn, Mean Sea Level PressureIn, Min Sea Level PressureIn, Max VisibilityMiles, Mean VisibilityMiles, Min VisibilityMiles, Max Wind SpeedMPH, Mean Wind SpeedMPH, Max Gust SpeedMPH,PrecipitationIn, CloudCover, Events, WindDirDegrees
2013-1-1,39,36,30,29,27,23,79,70,63,30.06,30.01,29.96,10,10,10,13,8,,0.00,7,,288
2013-1-2,32,28,25,22,15,11,72,59,47,30.27,30.16,30.05,10,10,10,12,7,,0.00,1,,323
2013-1-3,36,28,19,20,16,12,74,60,48,30.27,30.22,30.16,10,10,7,13,3,22,0.00,1,,224
2013-1-4,37,34,30,22,20,19,67,59,50,30.23,30.18,30.11,10,10,10,20,15,28,0.00,4,,271
2013-1-5,39,34,30,26,21,19,75,60,47,30.40,30.30,30.18,10,10,8,18,9,26,0.00,1,,297
2013-1-6,44,37,30,29,26,23,82,62,47,30.20,30.13,30.05,10,9,6,8,3,,0.00,7,,225
2013-1-7,39,34,28,28,25,22,76,65,55,30.46,30.38,30.20,10,9,7,14,9,,0.00,5,,288
2013-1-8,46,36,27,31,26,22,85,72,55,30.44,30.40,30.38,9,8,6,7,3,,0.00,0,,181
2013-1-9,50,39,28,40,30,24,89,76,49,30.42,30.36,30.27,10,6,3,12,3,,0.00,2,,239
2013-1-10,48,42,37,29,27,24,68,56,45,30.63,30.54,30.43,10,10,10,10,6,,0.00,0,,350
2013-1-11,43,40,36,40,35,27,100,85,57,30.51,30.23,30.09,10,5,0,13,5,,0.17,7,Fog-Rain,141
2013-1-12,53,45,37,47,42,37,100,95,80,30.20,30.14,30.09,6,2,0,6,1,,0.00,4,Fog,318
2013-1-13,55,47,39,52,45,39,100,95,89,30.12,30.04,29.95,10,2,0,7,2,10,0.00,6,Fog,306
2013-1-14,53,50,47,50,44,30,100,78,56,30.35,30.10,29.94,10,5,0,18,8,25,0.09,8,Fog-Rain,328
2013-1-15,39,38,36,36,32,28,100,85,70,30.39,30.28,30.17,10,7,2,12,4,14,0.05,8,Rain,12
2013-1-16,36,34,32,36,33,30,100,96,92,30.18,30.02,29.87,10,4,1,13,3,15,0.36,8,Rain,45
2013-1-17,43,40,36,32,28,25,76,65,54,30.17,30.11,30.02,10,10,8,20,7,25,0.00,1,,306
2013-1-18,36,31,25,26,14,7,75,56,36,30.53,30.40,30.13,10,10,8,28,12,35,T,2,,280
2013-1-19,56,43,29,28,23,20,75,51,26,30.38,30.17,29.93,10,10,10,21,11,26,0.00,0,,180
2013-1-20,52,45,37,29,19,9,59,41,22,30.12,29.95,29.83,10,10,10,30,14,37,0.00,0,,264
2013-1-21,37,30,23,19,14,5,68,54,40,30.14,30.02,29.86,10,10,10,14,6,20,0.00,6,,325
2013-1-22,21,17,12,2,-3,-6,53,44,34,30.32,30.21,30.03,10,10,10,30,20,39,0.00,1,,294
2013-1-23,23,16,9,2,-2,-5,63,47,31,30.38,30.28,30.17,10,10,10,18,9,22,0.00,4,,276
2013-1-24,25,19,13,12,7,-1,92,64,36,30.56,30.31,30.08,10,6,2,25,10,31,T,5,Snow,347
2013-1-25,19,17,14,16,9,0,84,67,49,30.55,30.25,30.07,10,5,0,13,5,17,0.02,6,Fog-Snow,154
2013-1-26,29,23,17,23,18,15,92,84,75,30.46,30.25,30.06,9,5,2,5,1,6,T,8,Snow,284
2013-1-27,33,27,20,21,17,14,77,63,49,30.62,30.54,30.48,10,9,6,9,4,12,0.00,3,,311
2013-1-28,37,33,29,40,31,21,100,85,69,30.47,30.22,30.03,8,3,1,12,6,15,0.17,8,Rain-Snow,172
2013-1-29,66,54,42,53,47,40,93,78,63,30.14,30.06,29.97,10,8,3,13,5,15,0.00,4,,169
2013-1-30,67,52,37,59,45,37,100,96,92,29.94,29.69,29.24,10,3,0,29,4,36,0.28,4,Fog-Rain,260
2013-1-31,54,43,31,54,29,9,100,72,44,29.92,29.54,29.19,10,9,2,37,20,46,0.33,6,Rain-Snow,266